Location: Newark
(48.5156°N, 1.8989°W)
Time: 12:55:11
(UTC+00:00)

Courier 1B - Pass Details

Date: 23 November 2019
Orbit: 963 x 1209 km, 28.3° (Epoch: 09 December)

Event Time Altitude Azimuth Distance (km) Brightness Sun altitude
Rises 06:21:01 0° 233° (SW) 3,864 10.3 -10.7°
Reaches altitude 10° 06:25:35 10° 207° (SSW) 2,847 9.9 -10.0°
Maximum altitude 06:28:27 13° 182° (S) 2,601 10.0 -9.6°
Drops below altitude 10° 06:31:16 10° 157° (SSE) 2,778 10.5 -9.1°
Sets 06:35:36 0° 131° (SE) 3,683 12.1 -8.5°
